This is the latest recevied weather packets stored in our database for station/object WX4HP-13. If no packets are shown the sender has not sent any weather packets the latest 10 day(s).
| Time | Temp. | Humidity | Pressure | Rain* | Wind** | Luminosity | Snow |
|---|---|---|---|---|---|---|---|
| 1777654195 | 16.11° C | 53% | 1015.2 hPa | 0 mm | - | - | - |
| 1777653896 | 16.11° C | 53% | 1015.3 hPa | 0 mm | - | - | - |
| 1777653595 | 16.11° C | 54% | 1015.1 hPa | 0 mm | - | - | - |
| 1777653295 | 16.11° C | 55% | 1015.1 hPa | 0 mm | - | - | - |
| 1777652997 | 16.11° C | 54% | 1015.1 hPa | 0 mm | - | - | - |
| 1777652696 | 16.11° C | 55% | 1015.1 hPa | 0 mm | - | - | - |
| 1777652397 | 16.11° C | 57% | 1015.1 hPa | 0 mm | - | - | - |
| 1777652095 | 15.56° C | 57% | 1015.1 hPa | 0 mm | - | - | - |
| 1777651797 | 15° C | 58% | 1015.1 hPa | 0 mm | - | - | - |
| 1777651495 | 15° C | 58% | 1015.3 hPa | 0 mm | - | - | - |
| 1777651197 | 15° C | 59% | 1015.4 hPa | 0 mm | - | - | - |
| 1777650896 | 14.44° C | 60% | 1015.7 hPa | 0 mm | - | - | - |
| 1777650595 | 14.44° C | 61% | 1015.7 hPa | 0 mm | - | - | - |
| 1777650297 | 14.44° C | 60% | 1015.9 hPa | 0 mm | - | - | - |
| 1777649996 | 14.44° C | 63% | 1015.9 hPa | 0 mm | - | - | - |
| 1777649695 | 14.44° C | 61% | 1015.9 hPa | 0 mm | - | - | - |
| 1777649396 | 14.44° C | 61% | 1015.9 hPa | 0 mm | - | - | - |
| 1777649095 | 13.89° C | 63% | 1015.9 hPa | 0 mm | - | - | - |
| 1777648796 | 13.89° C | 63% | 1015.9 hPa | 0 mm | - | - | - |
| 1777648496 | 13.89° C | 63% | 1015.6 hPa | 0 mm | - | - | - |
| 1777648198 | 13.89° C | 63% | 1015.6 hPa | 0 mm | - | - | - |
| 1777647896 | 13.89° C | 65% | 1015.4 hPa | 0 mm | - | - | - |
| 1777647596 | 13.33° C | 64% | 1015.5 hPa | 0 mm | - | - | - |
| 1777647295 | 13.33° C | 65% | 1015.6 hPa | 0 mm | - | - | - |
| 1777646996 | 13.33° C | 64% | 1015.6 hPa | 0 mm | - | - | - |
* Rain latest hour (hover to see other rain measurements)
** Current wind speed in m/s (hover to see current wind gust speed)